Wind_Speed
11 10 10 10 10 10 10 9 9 9 10 10 10 10 10 10 9 9 9 9 9 9 9 10 10 10 9 8 8 8 8 7 7 7 8 7 7 7 7 7 6 6 5
10 9 9 9 10 9 9 9 9 9 10 10 10 10 10 10 10 10 9 9 9 9 9 9 9 9 9 8 8 7 7 7 7 8 8 7 7 7 7 6 6 6 6
10 10 10 10 10 10 9 9 9 9 9 8 9 9 9 9 9 9 9 9 9 9 9 9 9 9 9 8 7 7 7 7 6 7 8 8 7 6 6 6 6 5 5
10 11 10 11 10 10 10 9 9 10 9 9 9 9 9 9 9 9 9 9 9 9 9 9 9 8 8 7 7 7 8 7 7 8 8 7 7 7 6 6 5 5 5
11 11 12 11 9 9 9 9 10 9 9 8 8 8 8 8 9 8 8 8 9 9 8 8 8 7 7 7 7 7 8 7 7 8 8 8 7 7 6 6 5 5 5
12 12 12 12 11 10 10 9 9 9 9 8 8 8 8 8 8 8 8 8 8 8 8 8 7 7 8 7 7 7 7 7 8 8 7 7 7 6 6 6 5 5 5
11 12 13 12 11 11 11 10 9 9 9 9 8 8 8 7 7 7 7 8 8 8 8 8 7 7 7 7 7 7 7 7 7 7 7 7 6 5 6 5 5 5 4
12 13 13 13 12 11 10 9 9 9 9 9 9 8 8 7 8 7 7 8 9 8 7 8 7 7 7 7 6 7 7 6 6 7 7 6 5 5 5 4 4 4 4
13 13 13 12 12 11 10 9 9 9 8 8 8 8 8 7 7 7 7 7 8 8 8 7 7 7 7 7 6 6 6 5 6 7 6 5 5 5 4 4 3 3 4
13 13 13 12 11 11 11 10 9 8 8 8 7 8 7 7 7 7 8 6 6 7 7 7 7 7 7 6 6 6 5 5 6 6 5 5 4 4 4 3 3 3 3
13 13 12 11 11 10 10 10 9 8 8 8 8 7 7 7 7 7 7 7 6 6 6 6 7 7 7 6 6 5 5 5 5 5 5 4 4 4 4 3 3 2 2
14 13 12 11 11 10 9 9 9 8 7 7 7 7 7 6 6 6 6 6 6 6 6 6 6 6 6 6 5 5 5 5 4 4 4 4 3 3 3 3 3 2 2
15 14 13 13 11 10 9 8 8 8 8 7 7 7 7 7 6 6 6 6 6 6 6 5 5 5 4 4 4 4 4 4 4 4 3 3 3 2 2 2 2 2 1
15 15 14 13 12 11 9 8 8 8 8 8 8 7 7 8 7 7 7 7 6 6 5 5 5 4 4 4 4 3 3 3 3 3 3 3 2 2 1 1 1 1 1
15 15 15 14 13 11 9 8 7 8 8 8 8 7 7 7 7 7 7 6 5 5 5 5 4 4 3 3 3 3 2 3 3 3 3 2 2 1 1 1 1 1 2
15 15 15 14 14 12 11 9 7 7 7 7 7 7 7 6 6 6 6 6 5 5 4 4 3 3 3 2 2 2 2 2 2 2 2 1 1 0 1 1 2 2 3
14 14 14 14 13 12 12 11 10 9 8 8 8 7 6 6 5 5 5 5 5 4 4 3 3 3 2 2 1 1 1 1 1 1 1 1 1 1 2 2 3 3 3
13 13 13 13 13 12 12 12 11 10 9 8 8 7 6 6 5 5 5 4 3 3 3 2 2 2 2 1 1 0 0 1 1 1 1 1 2 2 3 3 4 4 4
12 12 12 12 12 12 11 11 11 10 9 8 7 6 5 5 4 4 4 4 4 4 3 2 1 1 1 1 1 1 1 2 2 2 2 3 3 3 4 5 5 5 6
13 11 11 11 11 11 11 10 10 9 9 8 7 5 5 4 4 3 3 4 4 3 3 2 2 2 2 2 2 2 3 3 3 3 4 4 5 5 6 6 7 7 7
12 12 10 10 10 11 11 10 10 9 8 7 6 5 5 4 4 4 3 3 3 3 3 3 3 3 3 2 3 3 3 4 4 5 6 6 6 7 7 7 7 8 8
11 11 11 9 9 10 10 10 9 9 7 6 5 5 5 4 4 4 4 3 3 3 4 4 3 3 3 3 4 4 5 4 5 6 6 7 7 8 8 8 8 9 9
10 10 10 10 9 9 9 8 8 8 7 5 5 5 5 5 4 4 3 4 4 4 4 4 5 4 4 4 5 5 4 5 6 7 7 7 8 9 9 9 9 9 10
9 9 9 9 9 9 9 8 8 7 7 7 5 4 5 4 4 5 5 5 5 6 5 5 5 5 5 6 6 6 6 7 8 8 8 8 9 9 9 10 10 10 10
9 8 8 8 8 8 9 9 8 8 7 7 5 5 5 5 5 6 6 6 7 7 7 7 6 6 7 8 8 8 8 8 9 9 9 10 10 10 10 11 11 11 12
8 8 8 7 7 7 8 8 8 8 8 7 6 6 6 6 6 6 7 7 7 8 8 8 8 7 8 9 9 9 9 9 9 9 10 10 11 11 11 12 12 12 13
Wind_Direction
58 59 67 68 73 76 79 84 84 86 92 92 87 87 89 92 96 97 105 108 110 114 116 116 116 118 120 116 119 120 130 128 128 142 143 137 132 132 131 132 130 128 131
53 56 62 67 72 79 80 83 86 88 91 88 87 85 87 89 91 94 99 103 108 113 117 116 110 110 113 116 119 122 125 117 126 133 125 123 128 131 130 130 129 131 136
54 58 63 68 74 81 83 86 85 91 91 85 86 89 90 89 93 95 97 102 108 114 117 115 113 110 110 114 113 118 123 121 122 124 125 125 128 131 129 128 130 131 134
56 61 63 68 71 75 82 89 98 94 92 88 89 91 90 89 92 96 99 106 110 115 118 118 115 113 116 121 121 125 125 120 118 120 125 122 122 128 129 130 129 133 137
55 60 62 63 68 73 77 85 91 94 88 88 91 88 86 87 90 95 103 110 112 114 115 120 117 117 122 126 126 125 119 116 121 125 120 117 122 127 125 131 135 135 141
58 60 60 62 68 70 74 79 89 91 83 91 94 89 87 91 95 99 99 108 116 116 114 121 125 126 123 120 113 112 111 120 122 120 115 113 119 124 126 130 132 134 136
58 59 60 64 66 68 70 75 85 83 80 82 86 88 90 94 98 101 100 105 114 112 110 115 121 123 118 115 110 112 113 123 116 113 112 115 117 117 122 123 124 129 138
56 57 60 62 63 67 71 76 82 83 82 80 83 90 93 95 102 103 102 104 106 111 113 112 114 114 111 109 112 114 112 113 106 110 113 115 116 113 115 114 113 123 133
56 56 58 59 58 62 67 73 80 83 82 83 86 92 94 96 106 104 99 107 105 106 110 109 109 112 107 104 108 109 107 109 112 117 115 111 110 109 111 115 117 123 128
55 56 56 58 60 62 64 71 78 79 80 82 85 92 96 97 98 111 103 105 100 99 107 110 114 110 108 109 110 110 104 112 115 112 110 108 107 107 108 114 121 130 132
53 53 53 55 58 62 65 71 78 80 81 81 82 86 90 93 97 105 109 105 102 101 98 104 115 108 104 103 104 103 99 104 112 109 106 100 100 103 109 116 125 131 141
53 53 53 53 57 61 65 70 75 80 84 83 82 83 87 94 97 98 108 109 101 97 96 95 99 101 101 101 101 104 105 102 105 104 99 100 104 104 106 116 125 141 152
52 55 53 53 54 58 65 66 72 76 80 84 84 85 87 88 91 94 100 99 93 92 92 86 85 88 97 96 93 95 96 91 95 99 99 103 106 110 116 118 125 139 170
49 51 50 50 53 56 63 70 77 78 78 80 85 90 90 86 89 90 87 82 83 83 82 83 85 95 98 87 86 92 96 92 95 95 96 96 101 112 132 144 146 186 223
48 50 50 48 49 53 58 66 77 83 83 81 83 89 89 86 87 85 81 79 83 84 77 78 86 99 96 88 91 93 97 96 89 90 91 92 98 103 123 190 241 265 252
48 48 48 47 48 51 60 64 72 78 81 79 80 83 83 83 86 87 84 78 78 77 69 73 84 83 83 82 90 97 97 86 74 77 86 88 78 341 305 279 279 277 269
45 45 46 46 47 52 56 59 64 70 70 76 75 76 75 74 74 75 78 81 78 74 75 87 83 71 61 67 99 110 87 83 45 47 43 33 5 325 306 290 288 286 280
44 45 46 46 49 55 58 60 64 66 67 72 72 72 67 66 66 67 74 74 70 66 63 73 78 69 52 54 66 211 252 291 272 300 315 326 315 312 306 295 288 285 280
43 45 48 49 51 53 55 57 63 63 64 69 72 70 66 60 61 67 63 58 51 54 55 47 55 17 355 349 339 298 267 273 275 298 290 284 295 299 299 292 285 284 282
40 45 47 49 50 51 52 56 60 59 59 62 65 64 60 55 55 62 58 43 35 36 33 22 357 323 318 321 325 314 287 271 271 285 289 288 293 290 288 290 286 283 284
37 39 42 43 49 50 52 55 55 54 55 58 60 58 51 49 49 46 38 31 25 15 6 352 336 319 310 324 326 311 290 277 277 281 283 284 286 284 283 285 289 286 286
37 36 39 43 46 47 47 46 46 47 48 50 47 38 34 30 26 18 9 2 354 352 351 343 343 338 326 321 320 316 304 290 288 289 288 285 285 288 289 289 290 289 288
32 32 32 32 36 39 37 39 37 35 33 32 32 20 9 8 3 353 345 345 345 342 335 328 328 328 322 314 307 307 302 299 297 292 289 289 289 287 286 285 287 289 288
24 23 23 24 27 30 31 29 29 26 22 19 15 11 4 358 349 344 336 332 330 328 326 319 317 317 316 315 309 303 298 297 298 293 294 293 292 289 289 289 286 287 289
12 12 12 15 16 19 20 20 21 21 18 17 14 7 359 352 341 336 327 324 323 323 326 321 315 312 315 316 314 308 302 298 294 290 291 291 290 289 290 291 289 286 287
2 0 359 0 4 5 7 6 6 7 7 6 1 351 350 344 337 329 321 316 314 314 317 319 315 309 308 311 313 308 303 300 292 289 290 290 290 290 290 291 290 287 287
Height
5865 5864 5863 5862 5862 5862 5862 5862 5862 5862 5862 5863 5862 5863 5864 5864 5865 5865 5866 5867 5867 5868 5869 5870 5871 5871 5872 5873 5874 5875 5876 5877 5878 5878 5879 5880 5881 5882 5883 5884 5884 5885 5886
5867 5866 5865 5864 5864 5863 5863 5863 5863 5863 5864 5864 5864 5865 5865 5866 5866 5866 5867 5868 5868 5869 5870 5871 5872 5873 5874 5874 5875 5876 5877 5878 5878 5879 5880 5881 5882 5883 5884 5884 5885 5886 5886
5868 5867 5866 5865 5865 5865 5865 5865 5865 5865 5865 5866 5866 5866 5867 5867 5867 5868 5868 5869 5870 5871 5872 5872 5873 5874 5875 5876 5876 5877 5878 5878 5879 5880 5881 5882 5883 5884 5884 5885 5886 5887 5887
5870 5869 5868 5867 5867 5866 5866 5866 5866 5866 5867 5867 5867 5868 5868 5868 5869 5869 5870 5870 5871 5872 5873 5873 5874 5875 5876 5877 5877 5878 5878 5879 5879 5881 5882 5883 5884 5884 5885 5886 5887 5887 5888
5872 5870 5869 5869 5868 5868 5868 5868 5868 5868 5868 5868 5869 5869 5869 5870 5870 5870 5871 5872 5872 5873 5874 5874 5876 5876 5877 5877 5878 5879 5879 5880 5881 5882 5883 5884 5885 5885 5886 5887 5887 5888 5889
5873 5872 5871 5870 5870 5870 5870 5870 5870 5870 5870 5870 5870 5870 5871 5871 5872 5872 5872 5873 5873 5874 5875 5876 5876 5877 5878 5878 5879 5880 5880 5881 5881 5882 5883 5885 5885 5886 5886 5887 5888 5888 5889
5875 5874 5873 5872 5872 5872 5871 5871 5871 5872 5872 5872 5872 5872 5872 5873 5873 5873 5874 5874 5874 5875 5876 5877 5878 5878 5879 5879 5880 5881 5882 5882 5882 5883 5884 5885 5886 5887 5887 5888 5888 5889 5889
5877 5876 5875 5874 5873 5873 5873 5873 5873 5873 5873 5874 5874 5874 5874 5874 5874 5875 5875 5875 5876 5877 5878 5878 5879 5879 5880 5881 5881 5882 5883 5883 5884 5884 5885 5886 5887 5887 5888 5888 5889 5889 5890
5879 5877 5876 5876 5875 5875 5874 5874 5874 5875 5875 5875 5875 5875 5875 5876 5876 5876 5876 5876 5877 5878 5879 5880 5880 5881 5881 5882 5882 5883 5884 5884 5885 5885 5886 5887 5887 5888 5888 5889 5889 5890 5890
5880 5879 5878 5878 5877 5876 5876 5876 5876 5876 5876 5877 5877 5877 5877 5877 5878 5878 5878 5878 5879 5879 5880 5881 5881 5882 5882 5883 5883 5884 5884 5885 5886 5886 5887 5887 5888 5888 5889 5889 5890 5890 5891
5882 5881 5880 5880 5879 5878 5878 5878 5878 5878 5878 5878 5878 5878 5879 5879 5879 5879 5880 5880 5881 5881 5881 5882 5883 5883 5884 5884 5884 5885 5885 5886 5886 5887 5887 5888 5888 5889 5889 5890 5890 5890 5891
5885 5883 5882 5881 5880 5880 5880 5879 5879 5879 5879 5879 5880 5880 5880 5880 5881 5881 5881 5882 5882 5882 5883 5883 5884 5884 5885 5885 5885 5886 5886 5887 5887 5887 5888 5888 5889 5889 5889 5890 5890 5891 5891
5887 5885 5884 5883 5882 5881 5881 5881 5881 5881 5881 5881 5881 5881 5881 5882 5882 5882 5883 5883 5883 5884 5884 5884 5885 5885 5886 5886 5886 5887 5887 5887 5888 5888 5888 5888 5889 5889 5890 5890 5891 5891 5891
5889 5887 5886 5885 5884 5883 5882 5882 5882 5882 5882 5882 5882 5883 5883 5883 5883 5884 5884 5884 5885 5885 5885 5886 5886 5886 5887 5887 5887 5888 5888 5888 5888 5889 5889 5889 5889 5890 5890 5890 5891 5891 5891
5891 5890 5888 5887 5886 5885 5884 5883 5883 5883 5884 5884 5884 5884 5884 5885 5885 5885 5886 5886 5886 5886 5887 5887 5887 5887 5888 5888 5888 5888 5889 5889 5889 5889 5889 5889 5890 5890 5890 5890 5890 5890 5890
5893 5892 5891 5889 5888 5886 5886 5885 5885 5885 5885 5885 5885 5885 5886 5886 5886 5887 5887 5887 5887 5887 5887 5887 5888 5888 5888 5889 5889 5889 5889 5889 5889 5889 5889 5889 5890 5890 5890 5890 5890 5890 5890
5896 5894 5893 5892 5890 5889 5888 5888 5887 5887 5887 5887 5887 5887 5887 5887 5887 5888 5888 5888 5888 5888 5888 5888 5888 5888 5889 5889 5889 5889 5889 5889 5890 5890 5889 5889 5889 5889 5889 5889 5889 5889 5889
5898 5897 5896 5894 5893 5892 5891 5890 5890 5889 5889 5889 5889 5889 5889 5889 5889 5889 5889 5889 5889 5889 5889 5889 5888 5889 5889 5889 5889 5889 5889 5889 5889 5889 5889 5889 5889 5889 5889 5889 5889 5888 5888
5900 5899 5898 5897 5896 5895 5894 5893 5892 5891 5891 5891 5891 5891 5891 5890 5890 5890 5890 5890 5889 5889 5890 5890 5889 5889 5889 5889 5889 5889 5889 5889 5889 5889 5889 5888 5888 5888 5888 5887 5887 5887 5887
5902 5901 5900 5899 5898 5897 5896 5895 5894 5893 5893 5893 5892 5892 5892 5892 5891 5891 5891 5891 5890 5890 5890 5890 5890 5889 5889 5889 5889 5889 5889 5888 5888 5888 5888 5887 5887 5887 5887 5886 5886 5886 5886
5904 5903 5902 5901 5900 5899 5898 5897 5896 5895 5895 5894 5894 5893 5893 5893 5892 5892 5892 5892 5891 5891 5891 5890 5890 5889 5889 5889 5888 5888 5888 5887 5887 5887 5887 5886 5886 5885 5885 5885 5884 5884 5883
5906 5904 5903 5902 5901 5900 5899 5899 5898 5897 5896 5895 5895 5894 5894 5893 5893 5893 5893 5892 5892 5892 5891 5890 5890 5889 5889 5888 5888 5887 5887 5887 5886 5885 5885 5885 5884 5883 5883 5883 5882 5882 5881
5907 5906 5905 5904 5903 5901 5901 5900 5899 5898 5897 5896 5896 5895 5895 5894 5894 5893 5893 5893 5892 5892 5891 5890 5890 5889 5889 5888 5887 5887 5886 5885 5885 5884 5884 5883 5882 5882 5881 5880 5880 5879 5879
5908 5907 5906 5905 5904 5903 5902 5901 5900 5899 5898 5897 5896 5895 5895 5894 5894 5894 5893 5893 5892 5891 5890 5890 5889 5888 5888 5887 5886 5885 5885 5884 5883 5883 5882 5881 5881 5880 5879 5878 5877 5877 5876
5909 5907 5906 5905 5904 5903 5902 5901 5900 5899 5898 5898 5897 5896 5895 5894 5894 5893 5892 5892 5891 5890 5890 5889 5888 5887 5887 5886 5885 5884 5883 5882 5882 5881 5881 5880 5879 5878 5877 5876 5875 5874 5874
5909 5907 5906 5905 5905 5904 5902 5901 5901 5900 5899 5898 5897 5896 5895 5894 5893 5892 5892 5891 5890 5889 5889 5888 5887 5886 5886 5885 5884 5883 5882 5881 5880 5879 5879 5877 5877 5876 5874 5873 5872 5871 5871